����,�O�C���x,�����t���O,�O�C���x,�����t���O,�󒲎����x,�����t���O,�󒲎����x,�����t���O,��󒲎����x,�����t���O,����,�����t���O
2004/7/1 0:00,26.3,0,65,0,27.6,0,69.1,0,26.2,0,25.5,0
2004/7/1 0:15,26.2,0,65,0,27.5,0,69.4,0,26.1,0,24.9,0
2004/7/1 0:30,26.1,0,65,0,27.4,0,69.1,0,25.9,0,25,0
2004/7/1 0:45,25.8,0,65,0,27.2,0,69.1,0,25.8,0,25,0
2004/7/1 1:00,25.6,0,66,0,27.1,0,69.4,0,25.6,0,25,0
2004/7/1 1:15,25.4,0,67,0,27,0,69.1,0,25.4,0,25,0
2004/7/1 1:30,25.3,0,67,0,26.9,0,69.4,0,25.4,0,25,0
2004/7/1 1:45,25.3,0,68,0,26.9,0,69.8,0,25.4,0,25.1,0
2004/7/1 2:00,25.2,0,68,0,26.8,0,70.4,0,25.4,0,25.1,0
2004/7/1 2:15,25,0,70,0,26.7,0,71,0,25.4,0,25.1,0
2004/7/1 2:30,24.8,0,72,0,26.8,0,71.9,0,25.3,0,25.1,0
2004/7/1 2:45,24.8,0,73,0,26.9,0,71.7,0,25.3,0,25.2,0
2004/7/1 3:00,24.8,0,74,0,26.9,0,71.9,0,25.3,0,25.2,0
2004/7/1 3:15,24.8,0,74,0,26.9,0,72,0,25.3,0,25.2,0
2004/7/1 3:30,24.7,0,75,0,26.9,0,71.9,0,25.4,0,25.2,0
2004/7/1 3:45,24.6,0,76,0,26.8,0,72,0,25.4,0,25.2,0
2004/7/1 4:00,24.5,0,77,0,26.8,0,72.4,0,25.4,0,25.2,0
2004/7/1 4:15,24.4,0,78,0,26.8,0,72.4,0,25.4,0,25.3,0
2004/7/1 4:30,24.3,0,78,0,26.8,0,72.5,0,25.4,0,25.3,0
2004/7/1 4:45,24.2,0,79,0,26.7,0,72.5,0,25.4,0,25.3,0
2004/7/1 5:00,24,0,79,0,26.7,0,72.5,0,25.4,0,25.3,0
2004/7/1 5:15,23.9,0,79,0,26.6,0,72.5,0,25.5,0,25.3,0
2004/7/1 5:30,23.8,0,80,0,26.6,0,72.3,0,25.4,0,25.3,0
2004/7/1 5:45,23.7,0,80,0,26.6,0,72.4,0,25.4,0,25.3,0
2004/7/1 6:00,23.6,0,80,0,26.6,0,72.2,0,25.4,0,25.4,0
2004/7/1 6:15,23.7,0,81,0,26.6,0,72.2,0,25.4,0,25.4,0
2004/7/1 6:30,23.7,0,81,0,26.5,0,72.3,0,25.4,0,25.4,0
2004/7/1 6:45,23.7,0,80,0,26.5,0,72.3,0,25.4,0,25.4,0
2004/7/1 7:00,23.8,0,80,0,26.5,0,72.2,0,25.4,0,25,0
2004/7/1 7:15,23.9,0,80,0,26.4,0,72.1,0,25.4,0,25.1,0
2004/7/1 7:30,24,0,80,0,26.4,0,72.2,0,25.3,0,25.1,0
2004/7/1 7:45,24.1,0,79,0,26.4,0,72.6,0,25.3,0,24.9,0
2004/7/1 8:00,24.2,0,78,0,26.4,0,72.8,0,25.3,0,24.9,0
2004/7/1 8:15,24.5,0,78,0,26.5,0,72.8,0,25.3,0,25,0
2004/7/1 8:30,24.6,0,77,0,26.6,0,72.6,0,25.4,0,25,0
2004/7/1 8:45,24.9,0,77,0,26.6,0,72.3,0,25.5,0,24.9,0
2004/7/1 9:00,25.1,0,75,0,26.7,0,72.2,0,25.6,0,25,0
2004/7/1 9:15,25.3,0,74,0,26.8,0,71.9,0,25.7,0,25,0
2004/7/1 9:30,25.7,0,73,0,27,0,72,0,25.8,0,25,0
2004/7/1 9:45,26.2,0,72,0,27.1,0,71.6,0,25.9,0,25,0
2004/7/1 10:00,26.6,0,70,0,27.2,0,71.5,0,26.1,0,25,0
2004/7/1 10:15,27.1,0,65,0,27.3,0,71.4,0,26.2,0,25.1,0
2004/7/1 10:30,27.5,0,65,0,27.5,0,71.2,0,26.4,0,25.1,0
2004/7/1 10:45,28,0,62,0,27.7,0,69.6,0,26.6,0,24.7,0
2004/7/1 11:00,28.6,0,59,0,27.8,0,69.9,0,26.7,0,24.8,0
2004/7/1 11:15,29.2,0,57,0,28,0,69.7,0,26.9,0,24.8,0
2004/7/1 11:30,29.9,0,54,0,28.1,0,68.9,0,27,0,24.9,0
2004/7/1 11:45,30.5,0,52,0,28.2,0,67.9,0,27.1,0,24.9,0
2004/7/1 12:00,30.9,0,51,0,28.3,0,68.6,0,27.3,0,24.9,0
2004/7/1 12:15,31,0,49,0,28.5,0,67.8,0,27.4,0,25,0
2004/7/1 12:30,31.1,0,50,0,28.6,0,68.5,0,27.5,0,25,0
2004/7/1 12:45,31.2,0,50,0,28.8,0,68.6,0,27.7,0,25,0
2004/7/1 13:00,31.3,0,50,0,29,0,67.6,0,27.9,0,25.1,0
2004/7/1 13:15,31.5,0,49,0,29.1,0,67.4,0,28.1,0,25.1,0
2004/7/1 13:30,31.5,0,50,0,29.2,0,67.6,0,28.2,0,25.1,0
2004/7/1 13:45,31.4,0,50,0,29.3,0,67.5,0,28.3,0,25.2,0
2004/7/1 14:00,31.5,0,49,0,29.3,0,67.6,0,28.4,0,25.2,0
2004/7/1 14:15,31.5,0,51,0,29.4,0,67.3,0,28.4,0,25.3,0
2004/7/1 14:30,31.4,0,52,0,29.4,0,67.3,0,28.5,0,25.3,0
2004/7/1 14:45,31.3,0,51,0,29.5,0,67.4,0,28.6,0,25.4,0
2004/7/1 15:00,31.3,0,50,0,29.6,0,66.9,0,28.6,0,25.4,0
2004/7/1 15:15,31.3,0,50,0,29.6,0,66.2,0,28.6,0,25.3,0
2004/7/1 15:30,31.3,0,50,0,29.7,0,66.1,0,28.7,0,25.3,0
2004/7/1 15:45,31.2,0,49,0,29.7,0,65.6,0,28.7,0,25.4,0
2004/7/1 16:00,31.1,0,51,0,29.8,0,65.8,0,28.7,0,25.4,0
2004/7/1 16:15,31.1,0,53,0,29.8,0,65.8,0,28.7,0,25.5,0
2004/7/1 16:30,31,0,54,0,29.8,0,66.4,0,28.8,0,25.5,0
2004/7/1 16:45,30.8,0,54,0,29.8,0,66.5,0,28.8,0,25.5,0
2004/7/1 17:00,30.5,0,55,0,29.8,0,66.3,0,28.8,0,25.6,0
2004/7/1 17:15,30.2,0,56,0,29.8,0,66.6,0,28.8,0,25.6,0
2004/7/1 17:30,30,0,57,0,29.7,0,66.6,0,28.8,0,25.7,0
2004/7/1 17:45,29.7,0,58,0,29.7,0,66.7,0,28.7,0,25.7,0
2004/7/1 18:00,29.4,0,60,0,29.6,0,67.2,0,28.7,0,25.8,0
2004/7/1 18:15,28.9,0,61,0,29.5,0,67.6,0,28.7,0,25.1,0
2004/7/1 18:30,28.5,0,63,0,29.4,0,67.6,0,28.6,0,25.2,0
2004/7/1 18:45,28.2,0,64,0,29.3,0,67.9,0,28.5,0,25.2,0
2004/7/1 19:00,28,0,65,0,29.2,0,68,0,28.4,0,25,0
2004/7/1 19:15,27.7,0,66,0,28.9,0,68.3,0,28.3,0,25.1,0
2004/7/1 19:30,27.3,0,68,0,28.8,0,68.6,0,28.2,0,25.1,0
2004/7/1 19:45,27.2,0,68,0,28.7,0,68.6,0,28.1,0,25.2,0
2004/7/1 20:00,27.2,0,68,0,28.7,0,69.3,0,28,0,25.2,0
2004/7/1 20:15,27.1,0,69,0,28.6,0,69,0,27.9,0,25.2,0
2004/7/1 20:30,27,0,69,0,28.6,0,68.8,0,27.8,0,25.3,0
2004/7/1 20:45,26.9,0,69,0,28.5,0,69.1,0,27.7,0,25.3,0
2004/7/1 21:00,26.7,0,70,0,28.4,0,69.2,0,27.7,0,25.1,0
2004/7/1 21:15,26.6,0,71,0,28.4,0,69.6,0,27.6,0,25.2,0
2004/7/1 21:30,26.5,0,72,0,28.3,0,70,0,27.5,0,25.2,0
2004/7/1 21:45,26.5,0,71,0,28.2,0,70.4,0,27.4,0,25.2,0
2004/7/1 22:00,26.4,0,72,0,28.1,0,70.4,0,27.3,0,25.2,0
2004/7/1 22:15,26.3,0,71,0,28.1,0,70.4,0,27.3,0,25.3,0
2004/7/1 22:30,26.3,0,71,0,28,0,70.3,0,27.2,0,25.3,0
2004/7/1 22:45,26.2,0,71,0,27.8,0,70.6,0,27,0,25.3,0
2004/7/1 23:00,26.2,0,70,0,27.8,0,70.8,0,26.9,0,25.4,0
2004/7/1 23:15,26.2,0,70,0,27.7,0,70.6,0,26.9,0,25.4,0
2004/7/1 23:30,26.1,0,70,0,27.7,0,70.8,0,26.8,0,25.4,0
2004/7/1 23:45,25.9,0,70,0,27.6,0,70.8,0,26.8,0,25.4,0
2004/7/2 0:00,25.8,0,70,0,27.5,0,71.1,0,26.7,0,25.4,0
2004/7/2 0:15,25.7,0,70,0,27.5,0,71.3,0,26.7,0,25.5,0
2004/7/2 0:30,25.7,0,71,0,27.3,0,71.7,0,26.6,0,25.5,0
2004/7/2 0:45,25.6,0,71,0,27.2,0,72.1,0,26.5,0,25.5,0
2004/7/2 1:00,25.5,0,71,0,27.1,0,72.6,0,26.5,0,25.5,0
2004/7/2 1:15,25.5,0,72,0,27,0,72.8,0,26.4,0,25.5,0
2004/7/2 1:30,25.3,0,72,0,27,0,73.2,0,26.3,0,25.5,0
2004/7/2 1:45,25.2,0,74,0,27,0,73.4,0,26.2,0,25.3,0
2004/7/2 2:00,25.1,0,75,0,27.1,0,73.2,0,26.2,0,25.3,0
2004/7/2 2:15,25,0,77,0,27.1,0,73.3,0,26.1,0,25.1,0
2004/7/2 2:30,24.9,0,79,0,27.1,0,73.3,0,26.1,0,25.1,0
2004/7/2 2:45,24.9,0,79,0,27.1,0,73.8,0,26,0,25.1,0
2004/7/2 3:00,24.8,0,80,0,27,0,74.2,0,25.9,0,25.1,0
2004/7/2 3:15,24.8,0,80,0,27,0,74.4,0,26,0,25.2,0
2004/7/2 3:30,24.7,0,81,0,26.9,0,74.5,0,26,0,25.2,0
2004/7/2 3:45,24.7,0,81,0,26.9,0,74.6,0,26,0,25.2,0
2004/7/2 4:00,24.6,0,82,0,26.9,0,74.7,0,26,0,25.2,0
2004/7/2 4:15,24.6,0,82,0,26.9,0,74.9,0,26,0,25.2,0
2004/7/2 4:30,24.5,0,82,0,26.9,0,75.2,0,26,0,25.3,0
2004/7/2 4:45,24.5,0,82,0,26.9,0,75.1,0,26,0,25.3,0
2004/7/2 5:00,24.5,0,82,0,26.8,0,75.2,0,26,0,25.3,0
2004/7/2 5:15,24.4,0,82,0,26.8,0,75.1,0,25.9,0,25.3,0
2004/7/2 5:30,24.4,0,82,0,26.8,0,74.6,0,25.9,0,25.3,0
2004/7/2 5:45,24.4,0,82,0,26.8,0,74.6,0,25.9,0,25.4,0
2004/7/2 6:00,24.4,0,82,0,26.7,0,74.8,0,25.9,0,25.4,0
2004/7/2 6:15,24.4,0,82,0,26.7,0,75,0,25.9,0,25.4,0
2004/7/2 6:30,24.4,0,82,0,26.7,0,74.9,0,25.8,0,25.6,0
2004/7/2 6:45,24.5,0,82,0,26.7,0,75,0,25.8,0,25.7,0
2004/7/2 7:00,24.6,0,83,0,26.7,0,74.7,0,25.8,0,25.6,0
2004/7/2 7:15,24.7,0,82,0,26.7,0,74.7,0,25.8,0,25.3,0
2004/7/2 7:30,24.6,0,82,0,26.6,0,75.8,0,25.7,0,25.4,0
2004/7/2 7:45,24.7,0,82,0,26.5,0,76.4,0,25.7,0,25.2,0
2004/7/2 8:00,24.9,0,82,0,26.6,0,76.1,0,25.7,0,25.2,0
2004/7/2 8:15,25.1,0,80,0,26.6,0,75.2,0,25.8,0,25.3,0
2004/7/2 8:30,25.3,0,79,0,26.5,0,75.2,0,25.9,0,25.3,0
2004/7/2 8:45,25.4,0,78,0,26.5,0,75.4,0,25.9,0,25.3,0
2004/7/2 9:00,25.6,0,78,0,26.5,0,75.7,0,25.9,0,25.3,0
2004/7/2 9:15,25.8,0,76,0,26.6,0,75.2,0,26,0,25.4,0
2004/7/2 9:30,25.9,0,74,0,26.6,0,74.1,0,26,0,25.4,0
2004/7/2 9:45,26.2,0,74,0,26.7,0,75.1,0,26.1,0,25.4,0
2004/7/2 10:00,26.4,0,73,0,26.8,0,74.5,0,26.1,0,25.4,0
2004/7/2 10:15,26.6,0,70,0,27,0,71.7,0,26.1,0,25.4,0
2004/7/2 10:30,26.7,0,67,0,27.2,0,69,0,26.2,0,25.5,0
2004/7/2 10:45,27,0,66,0,27.3,0,68,0,26.3,0,25.5,0
2004/7/2 11:00,27.4,0,65,0,27.4,0,69.5,0,26.3,0,25.5,0
2004/7/2 11:15,28,0,64,0,27.6,0,69.7,0,26.4,0,25.5,0
2004/7/2 11:30,28.7,0,63,0,28.1,0,69.7,0,26.6,0,25.5,0
2004/7/2 11:45,29.3,0,61,0,28.4,0,68.9,0,27,0,25.6,0
2004/7/2 12:00,29.8,0,60,0,28.6,0,69,0,27.4,0,25.4,0
2004/7/2 12:15,30.2,0,60,0,28.8,0,69.6,0,27.8,0,25.4,0
2004/7/2 12:30,30.4,0,59,0,28.9,0,69.8,0,28.1,0,25.4,0
2004/7/2 12:45,30.5,0,57,0,28.9,0,68.9,0,28.3,0,25.5,0
2004/7/2 13:00,30.6,0,56,0,29,0,67,0,28.4,0,25.5,0
2004/7/2 13:15,30.7,0,55,0,29.1,0,65,0,28.6,0,25.5,0
2004/7/2 13:30,31,0,53,0,29.1,0,65.3,0,28.8,0,25.5,0
2004/7/2 13:45,31.2,0,51,0,29,0,65,0,28.9,0,25.6,0
2004/7/2 14:00,31.4,0,50,0,29,0,64.6,0,28.9,0,25.6,0
2004/7/2 14:15,31.6,0,49,0,29,0,65,0,29,0,25.7,0
2004/7/2 14:30,31.7,0,49,0,29.1,0,65.7,0,28.9,0,25.7,0
2004/7/2 14:45,31.8,0,51,0,29.1,0,66.4,0,28.9,0,25.7,0
2004/7/2 15:00,31.8,0,52,0,29.1,0,67.6,0,28.9,0,25.7,0
2004/7/2 15:15,31.9,0,51,0,29.2,0,67.9,0,28.9,0,25.8,0
2004/7/2 15:30,32,0,53,0,29.3,0,67.8,0,29,0,25.8,0
2004/7/2 15:45,32,0,53,0,29.3,0,68.3,0,29,0,25.8,0
2004/7/2 16:00,31.9,0,52,0,29.4,0,68,0,29,0,25.9,0
2004/7/2 16:15,32,0,52,0,29.5,0,67.7,0,29,0,25.9,0
2004/7/2 16:30,32.1,0,52,0,29.6,0,67.6,0,29.1,0,26,0
2004/7/2 16:45,32.2,0,51,0,29.6,0,67.2,0,29.2,0,26,0
2004/7/2 17:00,32.2,0,51,0,29.7,0,67,0,29.3,0,26,0
2004/7/2 17:15,32.2,0,52,0,29.7,0,67.3,0,29.4,0,26.1,0
2004/7/2 17:30,32.1,0,52,0,29.8,0,67.3,0,29.4,0,26.1,0
2004/7/2 17:45,32,0,53,0,29.8,0,67.7,0,29.4,0,25.7,0
2004/7/2 18:00,32,0,53,0,29.9,0,67.5,0,29.4,0,25.7,0
2004/7/2 18:15,31.9,0,53,0,29.9,0,67.4,0,29.4,0,25.7,0
2004/7/2 18:30,31.8,0,53,0,29.9,0,67.5,0,29.5,0,25.8,0
2004/7/2 18:45,31.7,0,54,0,29.9,0,67.8,0,29.5,0,25.4,0
2004/7/2 19:00,31.6,0,55,0,29.9,0,68.2,0,29.4,0,25.4,0
2004/7/2 19:15,31.5,0,55,0,29.9,0,68.5,0,29.4,0,25.5,0
2004/7/2 19:30,31.4,0,56,0,29.9,0,69.1,0,29.4,0,25.5,0
2004/7/2 19:45,31.3,0,57,0,29.9,0,69.9,0,29.4,0,25.6,0
2004/7/2 20:00,31.1,0,57,0,29.9,0,70.2,0,29.3,0,25.6,0
2004/7/2 20:15,31,0,58,0,29.8,0,70.7,0,29.3,0,25.7,0
2004/7/2 20:30,30.8,0,59,0,29.8,0,71.1,0,29.2,0,25.7,0
2004/7/2 20:45,30.7,0,60,0,29.8,0,71.5,0,29.2,0,25.7,0
2004/7/2 21:00,30.6,0,60,0,29.8,0,72,0,29.1,0,25.8,0
2004/7/2 21:15,30.4,0,61,0,29.8,0,71.7,0,29.1,0,25.9,0
2004/7/2 21:30,30.2,0,61,0,29.7,0,71.3,0,29.1,0,25.9,0
2004/7/2 21:45,30.1,0,63,0,29.6,0,72.2,0,29,0,25.9,0
2004/7/2 22:00,30,0,64,0,29.6,0,74,0,29,0,26,0
2004/7/2 22:15,29.7,0,65,0,29.5,0,73.8,0,28.9,0,26,0
2004/7/2 22:30,29.6,0,67,0,29.4,0,74.6,0,28.8,0,26.1,0
2004/7/2 22:45,29.4,0,68,0,29.3,0,76,0,28.7,0,26.1,0
2004/7/2 23:00,29.4,0,70,0,29.3,0,76.6,0,28.6,0,26.2,0
2004/7/2 23:15,29.3,0,70,0,29.3,0,77.1,0,28.5,0,26.2,0
2004/7/2 23:30,29.2,0,71,0,29.3,0,77.1,0,28.4,0,26.2,0
2004/7/2 23:45,29.2,0,71,0,29.3,0,77.2,0,28.3,0,26.3,0
2004/7/3 0:00,29.1,0,71,0,29.3,0,76.8,0,28.3,0,26.3,0
2004/7/3 0:15,29,0,72,0,29.2,0,76.8,0,28.3,0,26.4,0
2004/7/3 0:30,29,0,73,0,29.2,0,77.7,0,28.3,0,26.4,0
2004/7/3 0:45,28.9,0,74,0,29.1,0,78.5,0,28.2,0,26.4,0
2004/7/3 1:00,28.9,0,74,0,29.1,0,78,0,28.2,0,26.5,0
2004/7/3 1:15,28.8,0,74,0,29.1,0,78.2,0,28.2,0,26.5,0
2004/7/3 1:30,28.8,0,74,0,29.1,0,78.3,0,28.1,0,26.6,0
2004/7/3 1:45,28.7,0,74,0,29,0,78.5,0,28.1,0,26.6,0
2004/7/3 2:00,28.6,0,75,0,29,0,77.7,0,28,0,26.6,0
2004/7/3 2:15,28.5,0,75,0,29,0,77.2,0,28,0,26.7,0
2004/7/3 2:30,28.5,0,75,0,29,0,77.4,0,27.9,0,26.7,0
2004/7/3 2:45,28.5,0,76,0,29,0,77.8,0,27.8,0,26.7,0
2004/7/3 3:00,28.4,0,76,0,28.9,0,78,0,27.8,0,26.8,0
2004/7/3 3:15,28.3,0,77,0,28.9,0,78.1,0,27.8,0,26.8,0
2004/7/3 3:30,28.2,0,78,0,28.9,0,78.7,0,27.7,0,26.8,0
2004/7/3 3:45,28.1,0,79,0,29,0,78.2,0,27.6,0,26.9,0
2004/7/3 4:00,28.1,0,80,0,29,0,78.2,0,27.7,0,26.9,0
2004/7/3 4:15,28,0,81,0,28.9,0,78.5,0,27.7,0,26.9,0
2004/7/3 4:30,27.9,0,81,0,28.9,0,78.9,0,27.7,0,26.9,0
2004/7/3 4:45,27.8,0,83,0,28.9,0,79.3,0,27.8,0,27,0
2004/7/3 5:00,27.7,0,83,0,28.8,0,79.6,0,27.8,0,27,0
2004/7/3 5:15,27.6,0,84,0,28.8,0,80,0,27.7,0,27,0
2004/7/3 5:30,27.6,0,84,0,28.7,0,80,0,27.7,0,27.1,0
2004/7/3 5:45,27.6,0,84,0,28.7,0,79.8,0,27.7,0,27.1,0
2004/7/3 6:00,27.5,0,85,0,28.7,0,80,0,27.7,0,27.1,0
2004/7/3 6:15,27.6,0,85,0,28.7,0,80.1,0,27.7,0,26.1,0
2004/7/3 6:30,27.6,0,85,0,28.7,0,80.4,0,27.7,0,26.2,0
2004/7/3 6:45,27.7,0,85,0,28.6,0,82.2,0,27.7,0,26,0
2004/7/3 7:00,27.7,0,85,0,28.5,0,82.7,0,27.8,0,26,0
2004/7/3 7:15,27.8,0,85,0,28.5,0,82.7,0,27.8,0,26,0
2004/7/3 7:30,27.9,0,85,0,28.5,0,83.1,0,27.8,0,26.1,0
2004/7/3 7:45,28,0,86,0,28.6,0,83.2,0,27.9,0,26.1,0
2004/7/3 8:00,28.2,0,85,0,28.8,0,83,0,27.9,0,26.1,0
2004/7/3 8:15,28.5,0,84,0,28.9,0,82.2,0,28,0,25.6,0
2004/7/3 8:30,28.7,0,84,0,29.1,0,81.4,0,28.1,0,25.7,0
2004/7/3 8:45,28.8,0,82,0,29.3,0,79.4,0,28.2,0,25.7,0
2004/7/3 9:00,28.9,0,81,0,29.4,0,79.6,0,28.4,0,25.7,0
2004/7/3 9:15,29.1,0,80,0,29.3,0,78.4,0,28.4,0,25.8,0
2004/7/3 9:30,29.4,0,78,0,29.5,0,77.6,0,28.5,0,25.8,0
2004/7/3 9:45,29.8,0,76,0,29.8,0,75.7,0,28.6,0,25.9,0
2004/7/3 10:00,30.1,0,74,0,30,0,75.3,0,28.7,0,26.1,0
2004/7/3 10:15,30.2,0,71,0,30,0,74.3,0,28.8,0,26.1,0
2004/7/3 10:30,30.3,0,70,0,30,0,74.1,0,28.9,0,25.6,0
2004/7/3 10:45,30.8,0,68,0,30.4,0,72.9,0,28.9,0,25.7,0
2004/7/3 11:00,30.9,0,67,0,30.3,0,71.8,0,29,0,25.7,0
2004/7/3 11:15,31.3,0,65,0,30.5,0,72.5,0,29.1,0,25.8,0
2004/7/3 11:30,31.6,0,64,0,30.6,0,71.8,0,29.2,0,25.8,0
2004/7/3 11:45,32.2,0,60,0,31,0,69.5,0,29.4,0,25.9,0
2004/7/3 12:00,32.6,0,59,0,31.2,0,68.7,0,29.7,0,25.9,0
2004/7/3 12:15,32.7,0,58,0,31.4,0,69.1,0,29.9,0,25.8,0
2004/7/3 12:30,32.7,0,58,0,31.4,0,68.4,0,30.1,0,25.7,0
2004/7/3 12:45,32.7,0,57,0,31.3,0,67,0,30.2,0,25.8,0
2004/7/3 13:00,32.7,0,56,0,31.4,0,68.2,0,30.3,0,25.8,0
2004/7/3 13:15,32.3,0,59,0,31.3,0,70.3,0,30.2,0,25.6,0
2004/7/3 13:30,32.3,0,59,0,29.9,0,62.2,0,30.2,0,25.7,0
2004/7/3 13:45,32.2,0,58,0,29.1,0,58.2,0,30.2,0,25.7,0
2004/7/3 14:00,32.4,0,58,0,28.6,0,56.6,0,30.1,0,25.8,0
2004/7/3 14:15,32.5,0,58,0,28.2,0,55.4,0,30.1,0,25.8,0
2004/7/3 14:30,32.7,0,59,0,28,0,57.4,0,30.1,0,25.9,0
2004/7/3 14:45,32.9,0,59,0,28,0,60,0,30.1,0,25.9,0
2004/7/3 15:00,32.9,0,58,0,28.1,0,63.8,0,30.2,0,26,0
2004/7/3 15:15,32.9,0,57,0,28.3,0,65.4,0,30.3,0,26.1,0
2004/7/3 15:30,33.1,0,55,0,28.4,0,66.1,0,30.4,0,26.1,0
2004/7/3 15:45,33.2,0,54,0,28.5,0,64.9,0,30.5,0,26.2,0
2004/7/3 16:00,33.4,0,54,0,28.3,0,63.4,0,30.7,0,26.2,0
2004/7/3 16:15,33.4,0,55,0,28.1,0,62.4,0,30.8,0,26.3,0
2004/7/3 16:30,33.3,0,56,0,28,0,62,0,30.7,0,26.3,0
2004/7/3 16:45,33.2,0,56,0,28,0,62.3,0,30.7,0,26.4,0
2004/7/3 17:00,33.3,0,55,0,28.9,0,64.2,0,30.7,0,26.5,0
2004/7/3 17:15,33.3,0,55,0,29.3,0,64.7,0,30.7,0,26.5,0
2004/7/3 17:30,33.2,0,56,0,29.7,0,65.3,0,30.7,0,26.6,0
2004/7/3 17:45,33.2,0,55,0,29.9,0,65.7,0,30.7,0,26.6,0
2004/7/3 18:00,33,0,55,0,30.2,0,66.5,0,30.7,0,26.7,0
2004/7/3 18:15,32.9,0,53,0,30.3,0,65.5,0,30.8,0,26.7,0
2004/7/3 18:30,32.8,0,53,0,29.3,0,59.2,0,30.9,0,26.2,0
2004/7/3 18:45,32.7,0,52,0,28.7,0,56.7,0,30.8,0,26.2,0
2004/7/3 19:00,32.7,0,52,0,28.3,0,56,0,30.8,0,26.3,0
2004/7/3 19:15,32.6,0,52,0,28,0,55.2,0,30.8,0,26.3,0
2004/7/3 19:30,32.4,0,52,0,27.9,0,57.8,0,30.7,0,26.4,0
2004/7/3 19:45,32.3,0,53,0,28.1,0,61.7,0,30.7,0,26.4,0
2004/7/3 20:00,32.1,0,54,0,28.1,0,62.4,0,30.6,0,26.5,0
2004/7/3 20:15,31.9,0,55,0,28.2,0,63,0,30.5,0,26.5,0
2004/7/3 20:30,31.7,0,55,0,28.1,0,63.1,0,30.4,0,26.6,0
2004/7/3 20:45,31.6,0,56,0,28.1,0,63.1,0,30.3,0,26.6,0
2004/7/3 21:00,31.4,0,57,0,28,0,63.3,0,30.2,0,26.7,0
2004/7/3 21:15,31.3,0,58,0,28.1,0,63.2,0,30.1,0,26.8,0
2004/7/3 21:30,31.3,0,58,0,28.1,0,63,0,30,0,26.8,0
2004/7/3 21:45,31.1,0,59,0,28.1,0,62.7,0,30,0,26.8,0
2004/7/3 22:00,30.9,0,60,0,28,0,62.9,0,29.9,0,26.9,0
2004/7/3 22:15,30.7,0,60,0,28,0,66.9,0,29.8,0,26.9,0
2004/7/3 22:30,30.4,0,60,0,28.7,0,70,0,29.7,0,27,0
2004/7/3 22:45,30.2,0,61,0,28.9,0,68.8,0,29.6,0,26.4,0
2004/7/3 23:00,30,0,62,0,29.2,0,69.7,0,29.5,0,26.4,0
2004/7/3 23:15,29.8,0,61,0,29.3,0,69.8,0,29.4,0,26.5,0
2004/7/3 23:30,29.7,0,61,0,29.3,0,69.2,0,29.3,0,26.5,0
2004/7/3 23:45,29.7,0,62,0,29.4,0,69.6,0,29.3,0,26.6,0
2004/7/4 0:00,29.6,0,62,0,29.4,0,69.7,0,29.2,0,26.1,0
2004/7/4 0:15,29.5,0,63,0,29.4,0,69.9,0,29.1,0,26.1,0
2004/7/4 0:30,29.4,0,63,0,29.4,0,70.1,0,29,0,26.2,0
2004/7/4 0:45,29.3,0,64,0,29.4,0,70.1,0,29,0,26.2,0
2004/7/4 1:00,29.2,0,63,0,29.4,0,69.5,0,28.9,0,26.3,0
2004/7/4 1:15,29.1,0,63,0,29.4,0,69,0,28.8,0,26.2,0
2004/7/4 1:30,29,0,63,0,29.3,0,69,0,28.8,0,26.2,0
2004/7/4 1:45,29,0,64,0,29.3,0,69.5,0,28.7,0,26.3,0
2004/7/4 2:00,28.9,0,64,0,29.3,0,69.5,0,28.6,0,26.3,0
2004/7/4 2:15,28.8,0,64,0,29.3,0,69.2,0,28.5,0,26.4,0
2004/7/4 2:30,28.8,0,64,0,29.3,0,69.3,0,28.5,0,26.4,0
2004/7/4 2:45,28.6,0,65,0,29.3,0,69.8,0,28.4,0,26.4,0
2004/7/4 3:00,28.6,0,66,0,29.2,0,70.2,0,28.3,0,26.5,0
2004/7/4 3:15,28.5,0,67,0,29.2,0,70.6,0,28.2,0,26.5,0
2004/7/4 3:30,28.3,0,69,0,29.1,0,71.3,0,28.1,0,26.5,0
2004/7/4 3:45,28.3,0,70,0,29.1,0,71.7,0,28,0,26.6,0
2004/7/4 4:00,28.1,0,70,0,29,0,71.8,0,27.9,0,26.6,0
2004/7/4 4:15,28,0,70,0,28.9,0,71.8,0,27.9,0,26.6,0
2004/7/4 4:30,27.9,0,71,0,28.8,0,72.1,0,27.8,0,26.7,0
2004/7/4 4:45,27.8,0,71,0,28.7,0,72.3,0,27.7,0,26.7,0
2004/7/4 5:00,27.9,0,72,0,28.7,0,72.9,0,27.6,0,26.7,0
2004/7/4 5:15,27.7,0,72,0,28.6,0,73.5,0,27.5,0,26.8,0
2004/7/4 5:30,27.7,0,73,0,28.5,0,74.1,0,27.5,0,26.8,0
2004/7/4 5:45,27.6,0,73,0,28.5,0,74.2,0,27.4,0,26.8,0
2004/7/4 6:00,27.6,0,74,0,28.4,0,74.2,0,27.3,0,26.8,0
2004/7/4 6:15,27.5,0,74,0,28.4,0,74.4,0,27.2,0,26.8,0
2004/7/4 6:30,27.4,0,75,0,28.3,0,74.9,0,27.2,0,26.9,0
2004/7/4 6:45,27.5,0,75,0,28.4,0,75,0,27.1,0,26.2,0
2004/7/4 7:00,27.5,0,75,0,28.2,0,75.9,0,27.1,0,26.2,0
2004/7/4 7:15,27.5,0,75,0,28.3,0,75.5,0,27.1,0,26.2,0
2004/7/4 7:30,27.4,0,74,0,28.3,0,75,0,27.1,0,26.3,0
2004/7/4 7:45,27.5,0,74,0,28.3,0,74.6,0,27.2,0,26.3,0
2004/7/4 8:00,27.7,0,74,0,28.4,0,74.6,0,27.2,0,26.3,0
2004/7/4 8:15,27.9,0,74,0,28.4,0,75,0,27.3,0,26.4,0
2004/7/4 8:30,28,0,74,0,28.5,0,75.3,0,27.4,0,26.4,0
2004/7/4 8:45,28.1,0,73,0,28.5,0,75,0,27.5,0,26.4,0
2004/7/4 9:00,28.2,0,73,0,28.5,0,74.9,0,27.6,0,26.4,0
2004/7/4 9:15,28.3,0,73,0,28.6,0,74.4,0,27.7,0,26.5,0
2004/7/4 9:30,28.4,0,72,0,28.7,0,74.5,0,27.8,0,26.5,0
2004/7/4 9:45,28.5,0,72,0,28.7,0,74.4,0,27.8,0,26.5,0
2004/7/4 10:00,28.6,0,72,0,28.8,0,74.4,0,27.9,0,26.2,0
2004/7/4 10:15,28.6,0,71,0,28.8,0,73.7,0,27.9,0,26.2,0
2004/7/4 10:30,28.7,0,70,0,28.8,0,73.3,0,28,0,26.2,0
2004/7/4 10:45,28.8,0,69,0,28.9,0,73.1,0,28,0,26.3,0
2004/7/4 11:00,28.8,0,68,0,28.9,0,72.4,0,28,0,26.3,0
2004/7/4 11:15,28.7,0,64,0,29,0,68.8,0,28,0,26.3,0
2004/7/4 11:30,28.9,0,62,0,29,0,67.7,0,28.1,0,26.4,0
2004/7/4 11:45,29,0,62,0,29,0,67.7,0,28.1,0,26.4,0
2004/7/4 12:00,29.2,0,61,0,29.1,0,68,0,28.1,0,26.4,0
2004/7/4 12:15,29.3,0,61,0,29.1,0,68.3,0,28.1,0,26.5,0
2004/7/4 12:30,29.4,0,62,0,29.1,0,68.8,0,28.2,0,26.5,0
2004/7/4 12:45,29.4,0,62,0,29.2,0,69.3,0,28.2,0,26.5,0
2004/7/4 13:00,29.5,0,62,0,29.2,0,69.4,0,28.2,0,26.6,0
2004/7/4 13:15,29.5,0,60,0,29.3,0,69.1,0,28.3,0,26.6,0
2004/7/4 13:30,29.8,0,58,0,29.4,0,66.2,0,28.3,0,26.6,0
2004/7/4 13:45,30.1,0,58,0,29.5,0,66.1,0,28.4,0,26.7,0
2004/7/4 14:00,30.1,0,61,0,29.5,0,68.5,0,28.5,0,26.7,0
2004/7/4 14:15,29.8,0,64,0,29.5,0,71.3,0,28.6,0,26.7,0
2004/7/4 14:30,29.3,0,69,0,29.4,0,73.7,0,28.6,0,26.7,0
2004/7/4 14:45,28.9,0,72,0,29.4,0,73.9,0,28.6,0,26.8,0
2004/7/4 15:00,28.7,0,75,0,29.4,0,74.7,0,28.5,0,26.8,0
2004/7/4 15:15,28.5,0,76,0,29.4,0,75.2,0,28.4,0,26.8,0
2004/7/4 15:30,28.4,0,79,0,29.3,0,75.7,0,28.4,0,26.8,0
2004/7/4 15:45,28.4,0,79,0,29.4,0,76.1,0,28.3,0,26.1,0
2004/7/4 16:00,28.5,0,80,0,29.4,0,76.3,0,28.3,0,26.1,0
2004/7/4 16:15,28.5,0,77,0,29.4,0,76,0,28.3,0,26.1,0
2004/7/4 16:30,28.6,0,76,0,29.4,0,74.8,0,28.4,0,26.2,0
2004/7/4 16:45,28.7,0,76,0,29.5,0,75.3,0,28.4,0,26.2,0
2004/7/4 17:00,28.4,0,78,0,29.5,0,75.8,0,28.4,0,25.7,0
2004/7/4 17:15,28.2,0,80,0,29.4,0,76.4,0,28.4,0,25.8,0
2004/7/4 17:30,28.1,0,81,0,29.4,0,76.8,0,28.4,0,25.9,0
2004/7/4 17:45,27.9,0,82,0,29.4,0,77.5,0,28.3,0,25.9,0
2004/7/4 18:00,27.6,0,82,0,29.4,0,77.6,0,28.3,0,25.8,0
2004/7/4 18:15,27.2,0,82,0,29.3,0,76.5,0,28.2,0,25.9,0
2004/7/4 18:30,27.1,0,82,0,29.3,0,76,0,28.2,0,26,0
2004/7/4 18:45,26.9,0,82,0,29.2,0,75.5,0,28.1,0,26,0
2004/7/4 19:00,26.8,0,81,0,29.1,0,74.6,0,28,0,26,0
2004/7/4 19:15,26.7,0,81,0,29.1,0,74.1,0,27.9,0,26.1,0
2004/7/4 19:30,26.7,0,81,0,29.1,0,73.8,0,27.8,0,26.1,0
2004/7/4 19:45,26.6,0,80,0,28.6,0,74.3,0,27.7,0,26.1,0
2004/7/4 20:00,26.6,0,80,0,28.3,0,74.7,0,27.7,0,26.1,0
2004/7/4 20:15,26.5,0,79,0,28.1,0,75.1,0,27.6,0,26.2,0
2004/7/4 20:30,26.5,0,79,0,27.8,0,76,0,27.6,0,26.2,0
2004/7/4 20:45,26.3,0,79,0,27.7,0,75.6,0,27.5,0,26.2,0
2004/7/4 21:00,26.3,0,79,0,27.5,0,75.7,0,27.5,0,26.2,0
2004/7/4 21:15,26.2,0,78,0,27.5,0,75.6,0,27.4,0,26.3,0
2004/7/4 21:30,26.3,0,79,0,27.4,0,76.4,0,27.4,0,26.3,0
2004/7/4 21:45,26.3,0,79,0,27.3,0,77.1,0,27.4,0,25.8,0
2004/7/4 22:00,26.2,0,79,0,27.3,0,76.3,0,27.4,0,25.8,0
2004/7/4 22:15,26.1,0,78,0,27.3,0,75.6,0,27.3,0,25.9,0
2004/7/4 22:30,26.1,0,77,0,27.3,0,75.4,0,27.3,0,25.9,0
2004/7/4 22:45,26.1,0,78,0,27.2,0,75.4,0,27.3,0,26,0
2004/7/4 23:00,26.1,0,77,0,27.1,0,76.1,0,27.2,0,26,0
2004/7/4 23:15,25.9,0,75,0,27.2,0,74.6,0,27.2,0,26,0
2004/7/4 23:30,25.8,0,75,0,27.4,0,74.3,0,27.2,0,26,0
2004/7/4 23:45,25.8,0,75,0,27.5,0,73.6,0,27.1,0,26.1,0
2004/7/5 0:00,25.8,0,75,0,27.5,0,73.3,0,27,0,26.1,0
2004/7/5 0:15,25.7,0,75,0,27.5,0,72.9,0,26.9,0,25.9,0
2004/7/5 0:30,25.6,0,74,0,27.5,0,72.5,0,26.8,0,26,0
2004/7/5 0:45,25.6,0,75,0,27.4,0,72.6,0,26.7,0,26,0
2004/7/5 1:00,25.5,0,75,0,27.5,0,72.8,0,26.5,0,26.1,0
2004/7/5 1:15,25.5,0,76,0,27.6,0,72.7,0,26.5,0,26.1,0
2004/7/5 1:30,25.4,0,75,0,27.6,0,72.6,0,26.4,0,26.1,0
2004/7/5 1:45,25.3,0,75,0,27.7,0,72.3,0,26.4,0,26.1,0
2004/7/5 2:00,25.3,0,75,0,27.7,0,72,0,26.3,0,26.1,0
2004/7/5 2:15,25.4,0,75,0,27.7,0,71.8,0,26.3,0,26.1,0
2004/7/5 2:30,25.4,0,75,0,27.7,0,71.5,0,26.3,0,26.2,0
2004/7/5 2:45,25.4,0,77,0,27.7,0,71.5,0,26.3,0,26.2,0
2004/7/5 3:00,25.4,0,79,0,27.7,0,71.6,0,26.2,0,26.2,0
2004/7/5 3:15,25.2,0,79,0,27.7,0,71.8,0,26.2,0,26.2,0
2004/7/5 3:30,25,0,79,0,27.7,0,71.9,0,26.2,0,26.2,0
2004/7/5 3:45,24.9,0,79,0,27.7,0,72,0,26.1,0,26.2,0
2004/7/5 4:00,24.9,0,79,0,27.7,0,71.7,0,26.1,0,26.2,0
2004/7/5 4:15,24.9,0,79,0,27.6,0,71.5,0,26.1,0,26.3,0
2004/7/5 4:30,24.8,0,78,0,27.6,0,71,0,26.1,0,26.3,0
2004/7/5 4:45,24.8,0,78,0,27.6,0,71.1,0,26.1,0,26.3,0
2004/7/5 5:00,24.8,0,78,0,27.5,0,71.1,0,26.1,0,26.3,0
2004/7/5 5:15,24.7,0,78,0,27.5,0,71.1,0,26,0,26.3,0
2004/7/5 5:30,24.7,0,77,0,27.5,0,71.1,0,26,0,26.3,0
2004/7/5 5:45,24.6,0,77,0,27.4,0,71,0,26,0,26.2,0
2004/7/5 6:00,24.6,0,77,0,27.4,0,70.9,0,26,0,26.1,0
2004/7/5 6:15,24.6,0,76,0,27.3,0,70.7,0,26,0,26.2,0
2004/7/5 6:30,24.6,0,76,0,27.3,0,70.9,0,26,0,26.2,0
2004/7/5 6:45,24.6,0,76,0,27.2,0,70.8,0,25.9,0,26.2,0
2004/7/5 7:00,24.6,0,75,0,27.3,0,70.8,0,25.8,0,26,0
2004/7/5 7:15,24.6,0,75,0,27.1,0,70.3,0,25.8,0,26.1,0
2004/7/5 7:30,24.6,0,75,0,27,0,70.2,0,25.8,0,26.1,0
2004/7/5 7:45,24.8,0,75,0,27,0,69.8,0,25.7,0,25.9,0
2004/7/5 8:00,24.9,0,75,0,27.1,0,70.4,0,25.8,0,25.9,0
2004/7/5 8:15,25,0,74,0,27.1,0,69.5,0,25.8,0,25.9,0
2004/7/5 8:30,25.2,0,74,0,27.2,0,68.7,0,25.9,0,25.9,0
2004/7/5 8:45,25.4,0,73,0,27.4,0,67.9,0,26.1,0,26,0
2004/7/5 9:00,25.7,0,72,0,27.5,0,68.6,0,26.2,0,26,0
2004/7/5 9:15,25.9,0,70,0,27.5,0,66.9,0,26.3,0,26,0
2004/7/5 9:30,26.2,0,69,0,27.4,0,67.5,0,26.3,0,25.5,0
2004/7/5 9:45,26.5,0,69,0,27.5,0,69,0,26.4,0,25.5,0
2004/7/5 10:00,26.9,0,68,0,27.7,0,68.8,0,26.5,0,25.5,0
2004/7/5 10:15,27.4,0,67,0,27.9,0,68.2,0,26.5,0,25.6,0
2004/7/5 10:30,27.9,0,65,0,28.4,0,66.8,0,26.6,0,25.6,0
2004/7/5 10:45,28.2,0,62,0,28.5,0,65.7,0,26.7,0,25.6,0
2004/7/5 11:00,28.3,0,61,0,28.4,0,65.5,0,26.8,0,25.6,0
2004/7/5 11:15,28.5,0,61,0,28.3,0,66.2,0,26.9,0,25.7,0
2004/7/5 11:30,28.9,0,59,0,28.4,0,65.4,0,26.9,0,25.7,0
2004/7/5 11:45,29.5,0,56,0,28.6,0,64.2,0,27,0,25.7,0
2004/7/5 12:00,29.6,0,55,0,28.7,0,63.7,0,27.1,0,25.7,0
2004/7/5 12:15,29.6,0,55,0,28.6,0,66.4,0,27.2,0,25.8,0
2004/7/5 12:30,29.7,0,55,0,28.6,0,64.4,0,27.3,0,25.8,0
2004/7/5 12:45,29.7,0,54,0,28.7,0,63.9,0,27.3,0,25.8,0
2004/7/5 13:00,29.8,0,54,0,28.6,0,65.3,0,27.4,0,25.9,0